| time (UTC) | temp C | wind direction | speed KPH | gust KPH | rain 1hr cm | rain 24hr cm | rain mn cm | humidity % | barometer mb |
| 20260506001543 | 3 | 236 | 4.8 | 20.9 | 0.00 | 0.00 | 0.00 | 64 | 1013.4 |
| 20260506000056 | 3 | 246 | 9.7 | 16.1 | 0.00 | 0.00 | 0.00 | 63 | 1013.4 |
| 20260505234541 | 3 | 229 | 3.2 | 16.1 | 0.00 | 0.00 | 0.00 | 63 | 1013.4 |
| 20260505233028 | 3 | 237 | 4.8 | 14.5 | 0.00 | 0.00 | 0.00 | 63 | 1013.5 |
| 20260505231526 | 4 | 235 | 6.4 | 16.1 | 0.00 | 0.00 | 0.00 | 61 | 1013.4 |
| 20260505230018 | 4 | 234 | 4.8 | 14.5 | 0.00 | 0.00 | 0.00 | 60 | 1013.5 |
| 20260505224511 | 4 | 238 | 6.4 | 14.5 | 0.00 | 0.00 | 0.00 | 59 | 1013.5 |
| 20260505223008 | 5 | 243 | 3.2 | 8.0 | 0.00 | 0.00 | 0.00 | 58 | 1013.4 |
| 20260505221504 | 5 | 226 | 1.6 | 6.4 | 0.00 | 0.00 | 0.00 | 56 | 1013.3 |
| 20260505220010 | 5 | 259 | 1.6 | 14.5 | 0.00 | 0.00 | 0.00 | 55 | 1013.3 |
| 20260505214511 | 6 | 238 | 3.2 | 12.9 | 0.00 | 0.00 | 0.00 | 54 | 1013.2 |
| 20260505213004 | 6 | 251 | 4.8 | 27.4 | 0.00 | 0.00 | 0.00 | 52 | 1013.1 |
| 20260505211601 | 6 | 262 | 11.3 | 20.9 | 0.00 | 0.00 | 0.00 | 51 | 1013.0 |
| 20260505210100 | 6 | 244 | 9.7 | 19.3 | 0.00 | 0.00 | 0.00 | 50 | 1012.9 |
| 20260505204601 | 6 | 234 | 9.7 | 27.4 | 0.00 | 0.00 | 0.00 | 49 | 1012.8 |
| 20260505203101 | 7 | 240 | 14.5 | 24.1 | 0.00 | 0.00 | 0.00 | 48 | 1012.8 |
| 20260505201552 | 7 | 260 | 9.7 | 20.9 | 0.00 | 0.00 | 0.00 | 47 | 1012.7 |
| 20260505200047 | 7 | 244 | 8.0 | 16.1 | 0.00 | 0.00 | 0.00 | 51 | 1012.7 |
| 20260505194553 | 8 | 229 | 1.6 | 8.0 | 0.00 | 0.00 | 0.00 | 48 | 1012.5 |
| 20260505193039 | 8 | 231 | 1.6 | 16.1 | 0.00 | 0.00 | 0.00 | 46 | 1012.5 |
| 20260505191547 | 8 | 200 | 3.2 | 14.5 | 0.00 | 0.00 | 0.00 | 45 | 1012.3 |
| 20260505190038 | 9 | 233 | 0.0 | 12.9 | 0.00 | 0.00 | 0.00 | 44 | 1012.2 |
| 20260505184536 | 10 | 221 | 6.4 | 19.3 | 0.00 | 0.00 | 0.00 | 43 | 1012.0 |
| 20260505183028 | 10 | 236 | 14.5 | 17.7 | 0.00 | 0.00 | 0.00 | 41 | 1011.9 |
| 20260505181526 | 10 | 259 | 9.7 | 22.5 | 0.00 | 0.00 | 0.00 | 42 | 1011.9 |
| 20260505180032 | 11 | 246 | 0.0 | 12.9 | 0.00 | 0.00 | 0.00 | 42 | 1011.7 |
| 20260505174522 | 11 | 181 | 3.2 | 16.1 | 0.00 | 0.00 | 0.00 | 41 | 1011.5 |
| 20260505173025 | 11 | 247 | 11.3 | 20.9 | 0.00 | 0.00 | 0.00 | 39 | 1011.5 |
| 20260505171521 | 12 | 211 | 3.2 | 17.7 | 0.00 | 0.00 | 0.00 | 42 | 1011.4 |
| 20260505170014 | 12 | 246 | 3.2 | 16.1 | 0.00 | 0.00 | 0.00 | 43 | 1011.3 |
| 20260505164512 | 12 | 215 | 1.6 | 20.9 | 0.00 | 0.00 | 0.00 | 50 | 1011.3 |
| 20260505163015 | 12 | 207 | 8.0 | 19.3 | 0.00 | 0.00 | 0.00 | 53 | 1011.2 |
| 20260505161510 | 12 | 182 | 8.0 | 17.7 | 0.00 | 0.00 | 0.00 | 52 | 1011.1 |
| 20260505153012 | 13 | 184 | 6.4 | 20.9 | 0.00 | 0.00 | 0.00 | 49 | 1011.1 |
| 20260505151514 | 13 | 200 | 8.0 | 22.5 | 0.00 | 0.00 | 0.00 | 54 | 1011.2 |
| 20260505130105 | 12 | 192 | 12.9 | 24.1 | 0.00 | 0.00 | 0.00 | 51 | 1011.9 |
| 20260505124600 | 12 | 185 | 11.3 | 22.5 | 0.00 | 0.00 | 0.00 | 53 | 1011.9 |
| 20260505123100 | 11 | 190 | 9.7 | 17.7 | 0.00 | 0.00 | 0.00 | 53 | 1011.9 |
| 20260505121622 | 11 | 202 | 8.0 | 24.1 | 0.00 | 0.00 | 0.00 | 52 | 1012.0 |
| 20260505120042 | 11 | 213 | 8.0 | 22.5 | 0.00 | 0.00 | 0.00 | 55 | 1012.1 |
| 20260505114541 | 11 | 186 | 12.9 | 22.5 | 0.00 | 0.00 | 0.00 | 56 | 1012.2 |
| 20260505113041 | 11 | 165 | 8.0 | 19.3 | 0.00 | 0.00 | 0.00 | 57 | 1012.3 |
| 20260505111540 | 11 | 154 | 12.9 | 20.9 | 0.00 | 0.00 | 0.00 | 57 | 1012.2 |
| 20260505101540 | 9 | 148 | 8.0 | 16.1 | 0.00 | 0.00 | 0.00 | 62 | 1012.4 |
| 20260505100046 | 9 | 150 | 6.4 | 16.1 | 0.00 | 0.00 | 0.00 | 61 | 1012.4 |
| 20260505094542 | 9 | 158 | 8.0 | 16.1 | 0.00 | 0.00 | 0.00 | 59 | 1012.5 |
| 20260505093037 | 9 | 150 | 11.3 | 24.1 | 0.00 | 0.00 | 0.00 | 60 | 1012.7 |
| 20260505091549 | 10 | 160 | 8.0 | 16.1 | 0.00 | 0.00 | 0.00 | 59 | 1012.5 |
| 20260505090039 | 10 | 141 | 4.8 | 11.3 | 0.00 | 0.00 | 0.00 | 55 | 1012.5 |
| 20260505084534 | 10 | 140 | 1.6 | 11.3 | 0.00 | 0.00 | 0.00 | 48 | 1012.4 |
| 20260505083045 | 9 | 127 | 4.8 | 11.3 | 0.00 | 0.00 | 0.00 | 49 | 1012.4 |
| 20260505081539 | 8 | 275 | 0.0 | 4.8 | 0.00 | 0.00 | 0.00 | 52 | 1012.6 |
| 20260505080046 | 7 | 251 | 3.2 | 17.7 | 0.00 | 0.00 | 0.00 | 51 | 1012.6 |
| 20260505074540 | 7 | 234 | 0.0 | 11.3 | 0.00 | 0.00 | 0.00 | 53 | 1012.6 |
| 20260505073045 | 7 | 254 | 4.8 | 14.5 | 0.00 | 0.00 | 0.00 | 54 | 1012.6 |
| 20260505071541 | 6 | 258 | 8.0 | 22.5 | 0.00 | 0.00 | 0.00 | 55 | 1012.7 |
| 20260505070036 | 6 | 279 | 6.4 | 14.5 | 0.00 | 0.00 | 0.00 | 58 | 1012.7 |
| 20260505064533 | 5 | 250 | 4.8 | 14.5 | 0.00 | 0.00 | 0.00 | 60 | 1012.7 |
| 20260505063044 | 5 | 243 | 3.2 | 14.5 | 0.00 | 0.00 | 0.00 | 62 | 1012.6 |
| 20260505061535 | 4 | 212 | 3.2 | 12.9 | 0.00 | 0.00 | 0.00 | 66 | 1012.7 |
| 20260505060032 | 3 | 187 | 0.0 | 1.6 | 0.00 | 0.00 | 0.00 | 71 | 1012.5 |
| 20260505054542 | 3 | 183 | 0.0 | 3.2 | 0.00 | 0.00 | 0.00 | 72 | 1012.7 |
| 20260505053029 | 3 | 188 | 0.0 | 3.2 | 0.00 | 0.00 | 0.00 | 73 | 1012.6 |
| 20260505051538 | 2 | 253 | 0.0 | 8.0 | 0.00 | 0.00 | 0.00 | 75 | 1012.6 |
| 20260505041543 | 1 | 195 | 0.0 | 3.2 | 0.00 | 0.00 | 0.00 | 87 | 1012.6 |
| 20260505040027 | 1 | 179 | 1.6 | 6.4 | 0.00 | 0.00 | 0.00 | 86 | 1012.5 |
| 20260505034525 | 1 | 200 | 0.0 | 3.2 | 0.00 | 0.00 | 0.00 | 86 | 1012.3 |
| 20260505033025 | 1 | 196 | 0.0 | 3.2 | 0.00 | 0.00 | 0.00 | 87 | 1012.3 |
| 20260505031529 | 1 | 222 | 0.0 | 3.2 | 0.00 | 0.00 | 0.00 | 86 | 1012.2 |
| 20260505030022 | 1 | 224 | 0.0 | 3.2 | 0.00 | 0.00 | 0.00 | 86 | 1012.2 |
| 20260505024520 | 1 | 207 | 0.0 | 4.8 | 0.00 | 0.00 | 0.00 | 85 | 1012.2 |
| 20260505023019 | 2 | 190 | 1.6 | 4.8 | 0.00 | 0.00 | 0.00 | 82 | 1012.2 |
| 20260505021518 | 2 | 175 | 1.6 | 3.2 | 0.00 | 0.00 | 0.00 | 80 | 1012.3 |
| 20260505020013 | 2 | 194 | 0.0 | 3.2 | 0.00 | 0.00 | 0.00 | 79 | 1012.2 |
| 20260505014516 | 3 | 165 | 0.0 | 3.2 | 0.00 | 0.00 | 0.00 | 77 | 1012.2 |
| 20260505013010 | 3 | 255 | 0.0 | 3.2 | 0.00 | 0.00 | 0.00 | 77 | 1012.1 |
| 20260505011509 | 3 | 254 | 1.6 | 3.2 | 0.00 | 0.00 | 0.00 | 78 | 1012.0 |
| 20260505010016 | 3 | 252 | 0.0 | 3.2 | 0.00 | 0.00 | 0.00 | 77 | 1011.8 |
| 20260505004512 | 4 | 192 | 0.0 | 9.7 | 0.00 | 0.00 | 0.00 | 78 | 1011.7 |
| 20260505003009 | 4 | 224 | 0.0 | 4.8 | 0.00 | 0.00 | 0.00 | 81 | 1011.5 |